Flag for Germany Weather past 2 weeks in Soltau, Lower Saxony, Germany

Now
50 °F

Partly cloudy.


Feels Like: 48 °F
Forecast: 50 / 57 °F
Wind: 5 mph from Southwest

Location: Fassberg

Current Time: Sep 4, 2015 at 4:32:42 AM

Latest Report: Sep 4, 2015 at 3:53 AM


Visibility: 4 mi

Pressure: 29.92 "Hg

Humidity: 88%

Dew point: 46 °F

Location of SoltauLocation

Historic Weather in Soltau — Graph

°F

Soltau temperature yesterday

Maximum temperature yesterday: 63 °F (at 4:20 PM)
Minimum temperature yesterday: 43 °F (at 5:20 AM)
Average temperature yesterday: 53 °F

Past Weeks' High & Low Weather Summary

 TemperatureHumidityPressure
High84 °F (Aug 31, 3:20 PM)100% (Aug 20, 3:20 AM)30.30 "Hg (Aug 20, 3:20 AM)
Low43 °F (Sep 3, 5:20 AM)34% (Aug 22, 5:20 PM)29.62 "Hg (Aug 24, 6:20 PM)
Average62 °F78%29.98 "Hg
* Reported Aug 20 3:20 AM — Sep 4 3:20 AM, Soltau, Weather by CustomWeather, © 2015

Note: Actual official high and low records may vary slightly from our data, if they occured in-between our weather recording intervals... More about our weather records

Advertising

Soltau weather history for previous 24 hours

 ConditionsComfort  
Time TempWeatherWind HumidityBarometerVisibility
3:20 AM
Fri, Sep 4
48 °FFog.5 mph94%29.92 "HgN/A
2:20 AM48 °FFog.2 mph100%29.92 "HgN/A
1:20 AM46 °FFog.1 mph93%29.92 "HgN/A
12:20 AM48 °FFog.1 mph94%29.92 "HgN/A
11:20 PM
Thu, Sep 3
48 °FFog.2 mph100%29.92 "HgN/A
10:20 PM52 °FFog.2 mph94%29.92 "HgN/A
9:20 PM55 °FPassing clouds.5 mph88%29.92 "HgN/A
8:20 PM54 °FScattered showers. Broken clouds.3 mph94%29.89 "HgN/A
7:20 PM59 °FPassing clouds.2 mph82%29.89 "HgN/A
6:20 PM63 °FPassing clouds.3 mph59%29.89 "HgN/A
5:20 PM63 °FPassing clouds.6 mph64%29.89 "HgN/A
4:20 PM63 °FScattered clouds.6 mph68%29.92 "HgN/A
3:20 PM61 °FScattered clouds.5 mph72%29.92 "HgN/A
2:20 PM59 °FSprinkles. Broken clouds.3 mph77%29.92 "HgN/A
1:20 PM59 °FScattered clouds.5 mph72%29.95 "HgN/A
12:20 PM55 °FBroken clouds.5 mph88%29.95 "HgN/A
11:20 AM54 °FBroken clouds.3 mph94%29.95 "Hg6 mi
10:20 AM54 °FDrizzle. Partly sunny.3 mph88%29.95 "Hg4 mi
10:01 AM54 °FDrizzle. Fog.5 mph88%29.95 "Hg3 mi
9:20 AM52 °FPartly sunny.2 mph88%29.95 "Hg4 mi
8:20 AM50 °FBroken clouds.1 mph94%29.95 "Hg6 mi
7:20 AM46 °FPartly cloudy.2 mph93%29.95 "Hg6 mi
6:20 AM45 °FFog.1 mph93%29.95 "Hg5 mi
5:20 AM43 °FFog.No wind100%29.95 "HgN/A
4:20 AM45 °FFog.No wind93%29.95 "HgN/A
Weather by CustomWeather, © 2015

See weather overviewHow to use our weather pages